| time (UTC) | temp C | wind direction | speed KPH | gust KPH | rain 1hr cm | rain 24hr cm | rain mn cm | humidity % | barometer mb |
| 20260505124548 | 16 | 339 | 0.0 | 1.6 | 0.00 | 3.35 | 3.35 | 92 | 1006.8 |
| 20260505123059 | 16 | 326 | 0.0 | 1.6 | 0.00 | 3.35 | 3.35 | 92 | 1006.7 |
| 20260505121547 | 16 | 206 | 0.0 | 1.6 | 0.00 | 3.35 | 3.35 | 92 | 1006.5 |
| 20260505120048 | 16 | 251 | 0.0 | 3.2 | 0.00 | 3.35 | 3.35 | 92 | 1006.4 |
| 20260505114546 | 15 | 158 | 0.0 | 0.0 | 0.00 | 3.35 | 3.35 | 92 | 1006.3 |
| 20260505113048 | 15 | 154 | 0.0 | 0.0 | 0.03 | 3.35 | 3.35 | 92 | 1006.2 |
| 20260505111545 | 15 | 151 | 0.0 | 1.6 | 0.03 | 3.35 | 3.35 | 92 | 1006.1 |
| 20260505101543 | 15 | 14 | 0.0 | 0.0 | 0.00 | 3.33 | 3.33 | 92 | 1006.9 |
| 20260505100044 | 15 | 27 | 0.0 | 1.6 | 0.03 | 3.33 | 3.33 | 91 | 1007.1 |
| 20260505094544 | 15 | 27 | 0.0 | 0.0 | 0.08 | 3.33 | 3.33 | 91 | 1007.2 |
| 20260505093042 | 15 | 27 | 0.0 | 0.0 | 0.20 | 3.33 | 3.33 | 91 | 1007.1 |
| 20260505091548 | 15 | 57 | 0.0 | 0.0 | 0.51 | 3.33 | 3.33 | 91 | 1007.4 |
| 20260505090043 | 15 | 63 | 0.0 | 1.6 | 0.66 | 3.30 | 3.30 | 91 | 1007.3 |
| 20260505084540 | 15 | 343 | 0.0 | 0.0 | 0.66 | 3.25 | 3.25 | 91 | 1007.5 |
| 20260505083040 | 15 | 335 | 0.0 | 3.2 | 0.61 | 3.12 | 3.12 | 91 | 1008.0 |
| 20260505081540 | 15 | 281 | 0.0 | 1.6 | 1.63 | 2.77 | 2.77 | 90 | 1006.6 |
| 20260505080036 | 15 | 48 | 0.0 | 0.0 | 1.88 | 2.64 | 2.64 | 90 | 1006.9 |
| 20260505074534 | 15 | 47 | 0.0 | 1.6 | 2.21 | 2.59 | 2.59 | 89 | 1007.1 |
| 20260505073034 | 16 | 45 | 0.0 | 4.8 | 2.26 | 2.51 | 2.51 | 89 | 1007.5 |
| 20260505071529 | 16 | 344 | 1.6 | 11.3 | 0.91 | 1.12 | 1.12 | 89 | 1008.6 |
| 20260505070026 | 16 | 34 | 0.0 | 3.2 | 0.58 | 0.76 | 0.76 | 87 | 1006.6 |
| 20260505064524 | 16 | 97 | 0.0 | 1.6 | 0.33 | 0.38 | 0.38 | 86 | 1006.9 |
| 20260505063021 | 17 | 98 | 0.0 | 0.0 | 0.23 | 0.23 | 0.23 | 84 | 1007.0 |
| 20260505061516 | 17 | 338 | 0.0 | 1.6 | 0.20 | 0.20 | 0.20 | 80 | 1006.8 |
| 20260505060013 | 18 | 328 | 0.0 | 8.0 | 0.18 | 0.18 | 0.18 | 78 | 1007.1 |
| 20260505054509 | 19 | 201 | 1.6 | 9.7 | 0.03 | 0.03 | 0.03 | 73 | 1007.6 |
| 20260505053007 | 19 | 187 | 0.0 | 3.2 | 0.00 | 0.00 | 0.00 | 70 | 1007.5 |
| 20260505051518 | 19 | 141 | 0.0 | 3.2 | 0.00 | 0.00 | 0.00 | 69 | 1007.5 |
| 20260505041606 | 18 | 196 | 0.0 | 6.4 | 0.00 | 0.00 | 0.00 | 71 | 1007.5 |
| 20260505040107 | 18 | 208 | 0.0 | 3.2 | 0.00 | 0.00 | 0.00 | 71 | 1007.7 |
| 20260505034559 | 18 | 229 | 0.0 | 1.6 | 0.00 | 0.00 | 0.00 | 71 | 1007.8 |
| 20260505033059 | 18 | 251 | 0.0 | 4.8 | 0.00 | 0.00 | 0.00 | 71 | 1008.1 |
| 20260505031600 | 18 | 243 | 0.0 | 1.6 | 0.00 | 0.00 | 0.00 | 71 | 1008.1 |
| 20260505030057 | 19 | 269 | 0.0 | 1.6 | 0.00 | 0.00 | 0.00 | 70 | 1008.1 |
| 20260505024557 | 19 | 187 | 0.0 | 0.0 | 0.00 | 0.00 | 0.00 | 69 | 1008.1 |
| 20260505023156 | 20 | 187 | 0.0 | 0.0 | 0.00 | 0.00 | 0.00 | 67 | 1008.0 |
| 20260505021554 | 20 | 187 | 0.0 | 0.0 | 0.00 | 0.00 | 0.00 | 66 | 1008.0 |
| 20260505014555 | 21 | 154 | 0.0 | 3.2 | 0.00 | 0.00 | 0.00 | 64 | 1007.6 |
| 20260505013102 | 21 | 170 | 0.0 | 4.8 | 0.00 | 0.00 | 0.00 | 62 | 1007.4 |
| 20260505011554 | 22 | 156 | 0.0 | 3.2 | 0.00 | 0.00 | 0.00 | 61 | 1007.2 |
| 20260505010108 | 22 | 231 | 0.0 | 4.8 | 0.00 | 0.00 | 0.00 | 60 | 1007.0 |
| 20260505004551 | 22 | 227 | 0.0 | 4.8 | 0.00 | 0.00 | 0.00 | 58 | 1006.9 |
| 20260505003055 | 23 | 160 | 1.6 | 8.0 | 0.00 | 0.00 | 0.00 | 56 | 1006.9 |
| 20260505001550 | 23 | 165 | 0.0 | 9.7 | 0.00 | 0.00 | 0.00 | 55 | 1006.8 |
| 20260505000049 | 24 | 256 | 3.2 | 14.5 | 0.00 | 0.00 | 0.00 | 53 | 1006.9 |
| 20260504234548 | 25 | 199 | 1.6 | 12.9 | 0.00 | 0.00 | 0.00 | 52 | 1006.8 |
| 20260504233104 | 25 | 203 | 6.4 | 19.3 | 0.00 | 0.00 | 0.00 | 51 | 1006.7 |
| 20260504231548 | 25 | 153 | 6.4 | 16.1 | 0.00 | 0.00 | 0.00 | 50 | 1006.7 |
| 20260504230054 | 25 | 239 | 4.8 | 24.1 | 0.00 | 0.00 | 0.00 | 49 | 1006.7 |
| 20260504224550 | 26 | 170 | 4.8 | 17.7 | 0.00 | 0.00 | 0.00 | 47 | 1006.7 |
| 20260504223045 | 26 | 149 | 4.8 | 17.7 | 0.00 | 0.00 | 0.00 | 47 | 1006.6 |
| 20260504221543 | 27 | 177 | 6.4 | 14.5 | 0.00 | 0.00 | 0.00 | 46 | 1006.8 |
| 20260504220042 | 27 | 231 | 4.8 | 12.9 | 0.00 | 0.00 | 0.00 | 47 | 1006.8 |
| 20260504214539 | 27 | 259 | 3.2 | 17.7 | 0.00 | 0.00 | 0.00 | 46 | 1007.1 |
| 20260504213039 | 27 | 132 | 1.6 | 16.1 | 0.00 | 0.00 | 0.00 | 48 | 1007.1 |
| 20260504211538 | 26 | 237 | 6.4 | 17.7 | 0.00 | 0.00 | 0.00 | 45 | 1007.4 |
| 20260504210042 | 26 | 7 | 6.4 | 19.3 | 0.00 | 0.00 | 0.00 | 47 | 1007.6 |
| 20260504204536 | 27 | 170 | 4.8 | 17.7 | 0.00 | 0.00 | 0.00 | 47 | 1007.7 |
| 20260504203049 | 27 | 163 | 6.4 | 22.5 | 0.00 | 0.00 | 0.00 | 46 | 1007.9 |
| 20260504201532 | 26 | 173 | 8.0 | 27.4 | 0.00 | 0.00 | 0.00 | 48 | 1007.9 |
| 20260504200029 | 26 | 241 | 9.7 | 24.1 | 0.00 | 0.00 | 0.00 | 47 | 1008.1 |
| 20260504194530 | 26 | 187 | 6.4 | 20.9 | 0.00 | 0.00 | 0.00 | 47 | 1008.2 |
| 20260504193026 | 26 | 244 | 9.7 | 35.4 | 0.00 | 0.00 | 0.00 | 47 | 1008.5 |
| 20260504191526 | 26 | 175 | 6.4 | 20.9 | 0.00 | 0.00 | 0.00 | 48 | 1008.7 |
| 20260504190022 | 26 | 163 | 3.2 | 17.7 | 0.00 | 0.00 | 0.00 | 50 | 1008.8 |
| 20260504184518 | 26 | 213 | 6.4 | 22.5 | 0.00 | 0.00 | 0.00 | 49 | 1009.0 |
| 20260504183016 | 25 | 130 | 6.4 | 25.7 | 0.00 | 0.00 | 0.00 | 51 | 1009.2 |
| 20260504181513 | 25 | 148 | 6.4 | 27.4 | 0.00 | 0.00 | 0.00 | 50 | 1009.4 |
| 20260504180011 | 25 | 162 | 8.0 | 32.2 | 0.00 | 0.00 | 0.00 | 51 | 1009.6 |
| 20260504174508 | 25 | 156 | 6.4 | 22.5 | 0.00 | 0.00 | 0.00 | 49 | 1009.9 |
| 20260504173008 | 24 | 194 | 4.8 | 16.1 | 0.00 | 0.00 | 0.00 | 51 | 1009.9 |
| 20260504171503 | 23 | 199 | 9.7 | 25.7 | 0.00 | 0.00 | 0.00 | 50 | 1010.2 |